Hourly Data Report for July 07, 2021

PRINCE RUPERT
BRITISH COLUMBIA
Current Station Operator: NAVCAN

54°17'10.000" N
130°26'41.000" W
35.40 m
1066482
71022
YPR

Download Data

Hourly Data (July 2021)
Hourly Data Report for July 7, 2021
TIME
LST
Temp Definition
°C
Dew Point Definition
°C
Rel Hum Definition
%
Precip. Amount Definition
mm

Wind Dir Definition
10's deg

Wind Spd Definition
km/h
Visibility Definition
km
Stn Press Definition
kPa
Hmdx Definition


Wind Chill Definition


Weather Definition


00:00 11.3 9.9 91 0.0 25 8 16.1 101.31     LegendNANA
01:00 11.3 9.9 91 0.0 LegendMM 4 16.1 101.28     LegendNANA
02:00 11.2 9.8 91 0.0 LegendMM 4 16.1 101.24     LegendNANA
03:00 11.3 9.9 91 0.0 22 5 16.1 101.22     LegendNANA
04:00 11.4 10.0 91 0.0 LegendMM 4 16.1 101.18     LegendNANA
05:00 11.4 10.0 91 0.0 16 5 16.1 101.15     LegendNANA
06:00 11.3 10.2 93 0.0 12 9 11.3 101.13     LegendNANA
07:00 11.2 10.6 96 0.0 14 11 3.6 101.13     Fog
08:00 11.1 10.5 96 0.0 15 8 4.0 101.12     Fog
09:00 11.4 10.8 96 0.0 26 5 4.8 101.13     Fog
10:00 11.9 10.8 93 0.2 28 11 12.9 101.12     LegendNANA
11:00 12.6 11.0 90 0.0 27 8 16.1 101.13     LegendNANA
12:00 13.2 11.5 89 0.0 26 9 16.1 101.15     LegendNANA
13:00 14.3 11.3 82 0.0 26 9 16.1 101.16     LegendNANA
14:00 13.8 11.0 83 0.0 27 11 16.1 101.20     LegendNANA
15:00 13.3 11.2 87 0.0 29 11 16.1 101.20     LegendNANA
16:00 13.4 11.1 86 0.0 28 9 16.1 101.21     LegendNANA
17:00 13.1 11.3 89 0.0 28 9 16.1 101.22     LegendNANA
18:00 12.8 11.2 90 0.0 28 8 16.1 101.21     LegendNANA
19:00 12.3 10.9 91 0.0 29 8 16.1 101.21     LegendNANA
20:00 11.6 10.8 95 0.0 23 5 6.4 101.21     Fog
21:00 11.3 10.7 96 0.0 26 5 8.1 101.25     Fog
22:00 11.2 10.6 96 0.0 LegendMM 4 14.5 101.27     LegendNANA
23:00 11.0 10.4 96 0.0 LegendMM 4 12.9 101.29     LegendNANA

Notes on Data Quality.

Legend

  • E = Estimated
  • M = Missing
  • NA = Not Available*
  • [empty] = Indicates an unobserved value
Date modified: